Location: Cisewo
(53.3833°N, 14.9000°E)
Time: 14:03:48
(UTC+00:00)

H-2A R/B - Pass Details

Date: 18 April 2021
Orbit: 575 x 597 km, 98.2° (Epoch: 16 May)

Event Time Altitude Azimuth Distance (km) Brightness Sun altitude
Rises 20:10:26 0° 22° (NNE) 2,851 7.3 -16.1°
Reaches altitude 10° 20:12:49 10° 33° (NNE) 1,946 6.3 -16.4°
Maximum altitude 20:16:34 30° 95° (E) 1,084 4.4 -16.8°
Enters shadow 20:17:02 29° 109° (ESE) 1,102 4.4 -16.8°
